,,PA_Meas_PMT16A,,PR_Meas_QMR101_102,,RH_Meas_QMH101,,SR_Meas_QMS101,,TA_Meas_QMH101,,GenWind,,GenWind,
time,status,PA,status,PR,status,RH,status,SR,status,TA,status,DirAvg,status,SpdAvg,
2009-09-16, 00:00:04,VALID,918.341,VALID,0,VALID,95.4604,VALID,0,VALID,19.0384,VALID,88,VALID,0.235156,
2009-09-16, 00:01:04,VALID,918.325,VALID,0,VALID,95.5748,VALID,0,VALID,19.0579,VALID,88,VALID,0,
2009-09-16, 00:02:04,VALID,918.312,VALID,0,VALID,95.7044,VALID,0.107441,VALID,19.0564,VALID,88,VALID,0,
2009-09-16, 00:03:04,VALID,918.298,VALID,0,VALID,95.7577,VALID,0.107441,VALID,19.0774,VALID,88,VALID,0,
2009-09-16, 00:04:04,VALID,918.288,VALID,0,VALID,95.834,VALID,0,VALID,19.0564,VALID,88,VALID,0,
2009-09-16, 00:05:04,VALID,918.285,VALID,0,VALID,95.8492,VALID,0,VALID,19.0774,VALID,88,VALID,0,
2009-09-16, 00:06:04,VALID,918.249,VALID,0,VALID,95.8416,VALID,0,VALID,19.0969,VALID,88,VALID,0,
2009-09-16, 00:07:04,VALID,918.233,VALID,0,VALID,95.834,VALID,0,VALID,19.0983,VALID,88,VALID,0.3875,
2009-09-16, 00:08:04,VALID,918.186,VALID,0,VALID,95.8721,VALID,0,VALID,19.0774,VALID,88,VALID,0.647656,
2009-09-16, 00:09:04,VALID,918.183,VALID,0,VALID,95.8721,VALID,0,VALID,19.0788,VALID,88,VALID,0.78125,
2009-09-16, 00:10:04,VALID,918.137,VALID,0,VALID,95.9102,VALID,0,VALID,19.0593,VALID,88,VALID,0.85625,
2009-09-16, 00:11:04,VALID,918.146,VALID,0,VALID,95.8187,VALID,0,VALID,19.0203,VALID,88,VALID,0.791797,
2009-09-16, 00:12:04,VALID,918.14,VALID,0,VALID,95.8416,VALID,0,VALID,18.9814,VALID,88,VALID,0.675391,
2009-09-16, 00:13:04,VALID,918.133,VALID,0,VALID,95.8797,VALID,0,VALID,18.9619,VALID,88,VALID,0.831641,
2009-09-16, 00:14:04,VALID,918.152,VALID,0,VALID,95.9483,VALID,0,VALID,18.9409,VALID,88,VALID,0.933203,
2009-09-16, 00:15:04,VALID,918.149,VALID,0,VALID,96.0169,VALID,0,VALID,18.9619,VALID,88,VALID,0.79375,
2009-09-16, 00:16:04,VALID,918.136,VALID,0,VALID,96.0169,VALID,0,VALID,18.9619,VALID,88,VALID,0.649219,
2009-09-16, 00:17:04,VALID,918.133,VALID,0,VALID,96.0169,VALID,0,VALID,18.9409,VALID,88,VALID,0.743359,
2009-09-16, 00:18:04,VALID,918.117,VALID,0,VALID,96.055,VALID,0,VALID,18.9619,VALID,88,VALID,0.756641,
2009-09-16, 00:19:04,VALID,918.115,VALID,0,VALID,96.0627,VALID,0,VALID,18.9409,VALID,88,VALID,0.567187,
2009-09-16, 00:20:04,VALID,918.112,VALID,0,VALID,96.0703,VALID,0,VALID,18.9409,VALID,88,VALID,0.678125,
2009-09-16, 00:21:04,VALID,918.098,VALID,0,VALID,96.0855,VALID,0,VALID,18.9409,VALID,88,VALID,0.808594,
2009-09-16, 00:22:04,VALID,918.05,VALID,0,VALID,96.0245,VALID,0,VALID,18.92,VALID,88,VALID,0.778516,
2009-09-16, 00:23:04,VALID,918.065,VALID,0,VALID,95.9331,VALID,0,VALID,18.92,VALID,88,VALID,0.514063,
2009-09-16, 00:24:04,VALID,918.066,VALID,0,VALID,95.9254,VALID,0,VALID,18.9214,VALID,88,VALID,0.741797,
2009-09-16, 00:25:04,VALID,918.022,VALID,0,VALID,96.1846,VALID,0,VALID,18.9604,VALID,88,VALID,0.935938,
2009-09-16, 00:26:04,VALID,918.044,VALID,0,VALID,96.2609,VALID,0,VALID,18.9785,VALID,88,VALID,0.548437,
2009-09-16, 00:27:04,VALID,918.034,VALID,0,VALID,96.2533,VALID,0,VALID,18.998,VALID,88,VALID,0.623828,
2009-09-16, 00:28:04,VALID,918.039,VALID,0,VALID,96.1008,VALID,0,VALID,19.0189,VALID,88,VALID,0.549219,
2009-09-16, 00:29:04,VALID,918.043,VALID,0,VALID,96.0093,VALID,0,VALID,18.9994,VALID,88,VALID,0.538281,
2009-09-16, 00:30:04,VALID,918.033,VALID,0,VALID,96.0398,VALID,0,VALID,19.0189,VALID,88,VALID,0.7125,
2009-09-16, 00:31:04,VALID,918.01,VALID,0,VALID,95.8187,VALID,0.107441,VALID,18.9799,VALID,88,VALID,0.640234,
2009-09-16, 00:32:04,VALID,918.004,VALID,0,VALID,95.8721,VALID,0,VALID,18.9799,VALID,88,VALID,0.734375,
2009-09-16, 00:33:04,VALID,918.017,VALID,0,VALID,95.9026,VALID,0,VALID,18.9604,VALID,88,VALID,0.695313,
2009-09-16, 00:34:04,VALID,918.006,VALID,0,VALID,96.0703,VALID,0,VALID,18.9814,VALID,88,VALID,0.835547,
2009-09-16, 00:35:04,VALID,917.989,VALID,0,VALID,96.1236,VALID,0,VALID,18.9785,VALID,88,VALID,1.01055,
2009-09-16, 00:36:04,VALID,917.979,VALID,0,VALID,96.0398,VALID,0,VALID,18.9799,VALID,88,VALID,0.797656,
2009-09-16, 00:37:04,VALID,917.962,VALID,0,VALID,96.0169,VALID,0,VALID,18.9799,VALID,88,VALID,0.659375,
2009-09-16, 00:38:04,VALID,917.938,VALID,0,VALID,95.9331,VALID,0,VALID,18.9814,VALID,88,VALID,0.639453,
2009-09-16, 00:39:04,VALID,917.916,VALID,0,VALID,95.8873,VALID,0,VALID,18.9619,VALID,88,VALID,0.7,
2009-09-16, 00:40:04,VALID,917.905,VALID,0,VALID,95.8873,VALID,0,VALID,18.9409,VALID,88,VALID,0.742969,
2009-09-16, 00:41:04,VALID,917.887,VALID,0,VALID,96.0245,VALID,0,VALID,18.9604,VALID,88,VALID,0.594922,
2009-09-16, 00:42:04,VALID,917.869,VALID,0,VALID,95.9483,VALID,0,VALID,18.9799,VALID,88,VALID,0.405078,
2009-09-16, 00:43:04,VALID,917.81,VALID,0,VALID,95.773,VALID,0,VALID,19.0008,VALID,88,VALID,0,
2009-09-16, 00:44:04,VALID,917.794,VALID,0,VALID,95.7501,VALID,0,VALID,18.9814,VALID,88,VALID,0,
2009-09-16, 00:45:04,VALID,917.769,VALID,0,VALID,95.7425,VALID,0,VALID,19.0008,VALID,88,VALID,0.321484,
2009-09-16, 00:46:04,VALID,917.762,VALID,0,VALID,95.712,VALID,0,VALID,19.0203,VALID,88,VALID,0.530859,
2009-09-16, 00:47:04,VALID,917.772,VALID,0,VALID,95.7196,VALID,0,VALID,18.9994,VALID,88,VALID,0.761719,
2009-09-16, 00:48:04,VALID,917.739,VALID,0,VALID,95.5748,VALID,0,VALID,18.9814,VALID,88,VALID,0.780469,
2009-09-16, 00:49:04,VALID,917.738,VALID,0,VALID,95.4604,VALID,0,VALID,18.9409,VALID,88,VALID,0.633594,
2009-09-16, 00:50:04,VALID,917.696,VALID,0,VALID,95.4071,VALID,0,VALID,18.9229,VALID,88,VALID,0.764063,
2009-09-16, 00:51:04,VALID,917.683,VALID,0,VALID,95.7349,VALID,0,VALID,18.9019,VALID,88,VALID,0.886328,
2009-09-16, 00:52:04,VALID,917.669,VALID,0,VALID,95.8492,VALID,0,VALID,18.9019,VALID,88,VALID,0.801172,
2009-09-16, 00:53:04,VALID,917.665,VALID,0,VALID,95.9788,VALID,0,VALID,18.8824,VALID,88,VALID,0.798828,
2009-09-16, 00:54:04,VALID,917.647,VALID,0,VALID,95.7425,VALID,0,VALID,18.8629,VALID,88,VALID,0.762109,
2009-09-16, 00:55:04,VALID,917.627,VALID,0,VALID,96.1008,VALID,0,VALID,18.8615,VALID,88,VALID,1.10898,
2009-09-16, 00:56:04,VALID,917.605,VALID,0,VALID,96.055,VALID,0,VALID,18.842,VALID,88,VALID,1.08867,
2009-09-16, 00:57:04,VALID,917.604,VALID,0,VALID,95.7806,VALID,0,VALID,18.8434,VALID,88,VALID,0.928516,
2009-09-16, 00:58:04,VALID,917.59,VALID,0,VALID,95.7882,VALID,0,VALID,18.8629,VALID,88,VALID,0.783984,
2009-09-16, 00:59:04,VALID,917.575,VALID,0,VALID,95.8187,VALID,0,VALID,18.842,VALID,88,VALID,0.859375,
2009-09-16, 01:00:04,VALID,917.574,VALID,0,VALID,95.7272,VALID,0,VALID,18.8629,VALID,88,VALID,0.794141,
2009-09-16, 01:01:04,VALID,917.592,VALID,0,VALID,95.6891,VALID,0,VALID,18.8629,VALID,88,VALID,0.816016,
2009-09-16, 01:02:04,VALID,917.535,VALID,0,VALID,95.7349,VALID,0,VALID,18.8824,VALID,88,VALID,0.657031,
2009-09-16, 01:03:04,VALID,917.575,VALID,0,VALID,95.7577,VALID,0,VALID,18.9019,VALID,88,VALID,0.836328,
2009-09-16, 01:04:04,VALID,917.574,VALID,0,VALID,95.6815,VALID,0.107441,VALID,18.9214,VALID,88,VALID,0.848828,
2009-09-16, 01:05:04,VALID,917.551,VALID,0,VALID,95.5976,VALID,0,VALID,18.9409,VALID,88,VALID,0.707031,
2009-09-16, 01:06:04,VALID,917.513,VALID,0,VALID,95.4833,VALID,0,VALID,18.9409,VALID,88,VALID,0.746094,
2009-09-16, 01:07:04,VALID,917.52,VALID,0,VALID,95.59,VALID,0.107441,VALID,18.92,VALID,88,VALID,0.908594,
2009-09-16, 01:08:04,VALID,917.49,VALID,0,VALID,95.8187,VALID,0,VALID,18.9409,VALID,89,VALID,0.833594,
2009-09-16, 01:09:04,VALID,917.502,VALID,0,VALID,95.9102,VALID,0,VALID,18.9214,VALID,89,VALID,1.05586,
2009-09-16, 01:10:04,VALID,917.484,VALID,0,VALID,96.0855,VALID,0,VALID,18.9214,VALID,89,VALID,1.10781,
2009-09-16, 01:11:04,VALID,917.487,VALID,0,VALID,96.2075,VALID,0,VALID,18.9019,VALID,90,VALID,0.975781,
2009-09-16, 01:12:04,VALID,917.455,VALID,0,VALID,96.2304,VALID,0,VALID,18.8824,VALID,90,VALID,0.657422,
2009-09-16, 01:13:04,VALID,917.427,VALID,0,VALID,96.3524,VALID,0,VALID,18.8824,VALID,90,VALID,0.985156,
2009-09-16, 01:14:04,VALID,917.41,VALID,0,VALID,96.3219,VALID,0,VALID,18.8629,VALID,90,VALID,0.616016,
2009-09-16, 01:15:04,VALID,917.425,VALID,0,VALID,96.3676,VALID,0,VALID,18.8434,VALID,90,VALID,0.571484,
2009-09-16, 01:16:04,VALID,917.389,VALID,0,VALID,96.4438,VALID,0,VALID,18.8434,VALID,90,VALID,0.508984,
2009-09-16, 01:17:04,VALID,917.364,VALID,0,VALID,96.4438,VALID,0,VALID,18.842,VALID,90,VALID,0.324219,
2009-09-16, 01:18:04,VALID,917.348,VALID,0,VALID,96.4743,VALID,0,VALID,18.8629,VALID,90,VALID,0.170312,
2009-09-16, 01:19:04,VALID,917.315,VALID,0,VALID,96.4667,VALID,0.107441,VALID,18.8629,VALID,90,VALID,0.559375,
2009-09-16, 01:20:04,VALID,917.289,VALID,0,VALID,96.5277,VALID,0,VALID,18.8615,VALID,90,VALID,0.507813,
2009-09-16, 01:21:04,VALID,917.28,VALID,0,VALID,96.5429,VALID,0,VALID,18.9019,VALID,90,VALID,0,
2009-09-16, 01:22:04,VALID,917.246,VALID,0,VALID,96.4972,VALID,0,VALID,18.9019,VALID,90,VALID,0,
2009-09-16, 01:23:04,VALID,917.232,VALID,0,VALID,96.4667,VALID,0,VALID,18.9214,VALID,90,VALID,0,
2009-09-16, 01:24:04,VALID,917.236,VALID,0,VALID,96.4133,VALID,0,VALID,18.9214,VALID,90,VALID,0,
2009-09-16, 01:25:04,VALID,917.242,VALID,0,VALID,96.36,VALID,0.107441,VALID,18.9214,VALID,90,VALID,0.205078,
2009-09-16, 01:26:04,VALID,917.22,VALID,0,VALID,96.3142,VALID,0.107441,VALID,18.9214,VALID,90,VALID,0.296875,
2009-09-16, 01:27:04,VALID,917.192,VALID,0,VALID,96.2685,VALID,0,VALID,18.9214,VALID,90,VALID,0,
2009-09-16, 01:28:04,VALID,917.193,VALID,0,VALID,96.2151,VALID,0,VALID,18.9214,VALID,90,VALID,0.233594,
2009-09-16, 01:29:04,VALID,917.142,VALID,0,VALID,96.1999,VALID,0,VALID,18.9214,VALID,90,VALID,0,
2009-09-16, 01:30:04,VALID,917.18,VALID,0,VALID,96.1541,VALID,0.107441,VALID,18.9005,VALID,90,VALID,0,
2009-09-16, 01:31:04,VALID,917.151,VALID,0,VALID,96.0855,VALID,0.107441,VALID,18.9214,VALID,90,VALID,0,
2009-09-16, 01:32:04,VALID,917.158,VALID,0,VALID,96.0093,VALID,0,VALID,18.9019,VALID,90,VALID,0.0289063,
2009-09-16, 01:33:04,VALID,917.144,VALID,0,VALID,95.9407,VALID,0,VALID,18.9214,VALID,90,VALID,0.427734,
2009-09-16, 01:34:04,VALID,917.124,VALID,0,VALID,95.834,VALID,0,VALID,18.9005,VALID,90,VALID,0,
2009-09-16, 01:35:04,VALID,917.14,VALID,0,VALID,95.4833,VALID,0,VALID,18.8824,VALID,90,VALID,0.535547,
2009-09-16, 01:36:04,VALID,917.111,VALID,0,VALID,95.3079,VALID,0.107441,VALID,18.8434,VALID,90,VALID,0.478125,
2009-09-16, 01:37:04,VALID,917.104,VALID,0,VALID,95.3613,VALID,0,VALID,18.8434,VALID,90,VALID,0.046875,
2009-09-16, 01:38:04,VALID,917.136,VALID,0,VALID,95.6053,VALID,0,VALID,18.842,VALID,90,VALID,0.843359,
2009-09-16, 01:39:04,VALID,917.088,VALID,0,VALID,95.8187,VALID,0,VALID,18.9019,VALID,90,VALID,0.274609,
2009-09-16, 01:40:04,VALID,917.086,VALID,0,VALID,95.8873,VALID,0,VALID,18.9019,VALID,90,VALID,0.468359,
2009-09-16, 01:41:04,VALID,917.057,VALID,0,VALID,95.9254,VALID,0,VALID,18.9214,VALID,90,VALID,1.02344,
2009-09-16, 01:42:04,VALID,917.028,VALID,0,VALID,95.9331,VALID,0,VALID,18.9409,VALID,90,VALID,0.340625,
2009-09-16, 01:43:04,VALID,917.029,VALID,0,VALID,95.9102,VALID,0,VALID,18.9619,VALID,90,VALID,0.0183594,
2009-09-16, 01:44:04,VALID,917.022,VALID,0,VALID,95.7806,VALID,0,VALID,18.9604,VALID,90,VALID,0.368359,
2009-09-16, 01:45:04,VALID,916.982,VALID,0,VALID,95.651,VALID,0,VALID,18.9409,VALID,90,VALID,0.480469,
2009-09-16, 01:46:04,VALID,916.99,VALID,0,VALID,95.6586,VALID,0,VALID,18.9604,VALID,90,VALID,0.340625,
2009-09-16, 01:47:04,VALID,917.004,VALID,0,VALID,95.4757,VALID,0,VALID,18.9604,VALID,90,VALID,0.335156,
2009-09-16, 01:48:04,VALID,916.983,VALID,0,VALID,95.2927,VALID,0,VALID,18.9604,VALID,90,VALID,0.317969,
2009-09-16, 01:49:04,VALID,916.969,VALID,0,VALID,95.4528,VALID,0,VALID,18.9604,VALID,90,VALID,0.449219,
2009-09-16, 01:50:04,VALID,916.955,VALID,0,VALID,95.4909,VALID,0.107441,VALID,18.959,VALID,90,VALID,0.426562,
2009-09-16, 01:51:04,VALID,916.948,VALID,0,VALID,95.6053,VALID,0,VALID,18.9799,VALID,90,VALID,0.703906,
2009-09-16, 01:52:04,VALID,916.951,VALID,0,VALID,95.3842,VALID,0,VALID,18.9799,VALID,90,VALID,0.601563,
2009-09-16, 01:53:04,VALID,916.955,VALID,0,VALID,95.1326,VALID,0,VALID,18.9799,VALID,90,VALID,0.768359,
2009-09-16, 01:54:04,VALID,916.961,VALID,0,VALID,95.2165,VALID,0.107441,VALID,18.9799,VALID,90,VALID,0.323438,
2009-09-16, 01:55:04,VALID,916.966,VALID,0,VALID,95.3842,VALID,0,VALID,18.9799,VALID,90,VALID,0.296875,
2009-09-16, 01:56:04,VALID,916.935,VALID,0,VALID,95.5443,VALID,0,VALID,18.9994,VALID,90,VALID,1.22461,
2009-09-16, 01:57:04,VALID,916.914,VALID,0,VALID,95.6281,VALID,0,VALID,19.0189,VALID,90,VALID,0.850391,
2009-09-16, 01:58:04,VALID,916.926,VALID,0,VALID,95.4604,VALID,0,VALID,19.0579,VALID,90,VALID,0.385156,
2009-09-16, 01:59:04,VALID,916.907,VALID,0,VALID,95.1326,VALID,0,VALID,19.0774,VALID,90,VALID,0.555078,
2009-09-16, 02:00:04,VALID,916.897,VALID,0,VALID,95.0183,VALID,0,VALID,19.1164,VALID,90,VALID,0.588281,
2009-09-16, 02:01:04,VALID,916.875,VALID,0,VALID,94.8353,VALID,0,VALID,19.1749,VALID,90,VALID,0.916797,
2009-09-16, 02:02:04,VALID,916.865,VALID,0,VALID,94.4922,VALID,0,VALID,19.1944,VALID,73,VALID,1.325,
2009-09-16, 02:03:04,VALID,916.831,VALID,0,VALID,94.3779,VALID,0,VALID,19.2334,VALID,14,VALID,0.950391,
2009-09-16, 02:04:04,VALID,916.822,VALID,0,VALID,94.1568,VALID,0,VALID,19.2528,VALID,14,VALID,0.943359,
2009-09-16, 02:05:04,VALID,916.763,VALID,0,VALID,94.2407,VALID,0,VALID,19.2528,VALID,9,VALID,0.974219,
2009-09-16, 02:06:04,VALID,916.789,VALID,0,VALID,94.3855,VALID,0,VALID,19.2723,VALID,9,VALID,1.01484,
2009-09-16, 02:07:04,VALID,916.768,VALID,0,VALID,94.2254,VALID,0,VALID,19.2918,VALID,9,VALID,0.38125,
2009-09-16, 02:08:04,VALID,916.755,VALID,0,VALID,94.1111,VALID,0,VALID,19.3113,VALID,9,VALID,0.0726563,
2009-09-16, 02:09:04,VALID,916.76,VALID,0,VALID,94.2635,VALID,0,VALID,19.3698,VALID,9,VALID,0.75625,
2009-09-16, 02:10:04,VALID,916.736,VALID,0,VALID,94.1034,VALID,0,VALID,19.3893,VALID,9,VALID,0.655078,
2009-09-16, 02:11:04,VALID,916.762,VALID,0,VALID,94.1797,VALID,0,VALID,19.3893,VALID,9,VALID,0.403516,
2009-09-16, 02:12:04,VALID,916.774,VALID,0,VALID,94.3779,VALID,0,VALID,19.3893,VALID,9,VALID,0.199219,
2009-09-16, 02:13:04,VALID,916.764,VALID,0,VALID,94.4313,VALID,0,VALID,19.3893,VALID,9,VALID,0.216016,
2009-09-16, 02:14:04,VALID,916.785,VALID,0,VALID,94.3321,VALID,0,VALID,19.3893,VALID,9,VALID,0.808594,
2009-09-16, 02:15:04,VALID,916.77,VALID,0,VALID,94.4084,VALID,0.107441,VALID,19.3893,VALID,9,VALID,0.642578,
2009-09-16, 02:16:04,VALID,916.784,VALID,0,VALID,94.3855,VALID,0,VALID,19.3893,VALID,9,VALID,0.352344,
2009-09-16, 02:17:04,VALID,916.791,VALID,0,VALID,94.4541,VALID,0,VALID,19.3893,VALID,9,VALID,0.105859,
2009-09-16, 02:18:04,VALID,916.763,VALID,0,VALID,94.5761,VALID,0,VALID,19.3893,VALID,9,VALID,0.0160156,
2009-09-16, 02:19:04,VALID,916.79,VALID,0,VALID,94.6142,VALID,0,VALID,19.3893,VALID,9,VALID,0.0324219,
2009-09-16, 02:20:04,VALID,916.762,VALID,0,VALID,94.6676,VALID,0,VALID,19.3893,VALID,9,VALID,0.303125,
2009-09-16, 02:21:04,VALID,916.746,VALID,0,VALID,94.7438,VALID,0,VALID,19.3893,VALID,9,VALID,0,
2009-09-16, 02:22:04,VALID,916.76,VALID,0,VALID,94.8734,VALID,0,VALID,19.3684,VALID,9,VALID,0.28125,
2009-09-16, 02:23:04,VALID,916.75,VALID,0,VALID,94.8658,VALID,0,VALID,19.3893,VALID,9,VALID,0.294531,
2009-09-16, 02:24:04,VALID,916.718,VALID,0,VALID,94.82,VALID,0,VALID,19.3698,VALID,9,VALID,0.682031,
2009-09-16, 02:25:04,VALID,916.697,VALID,0,VALID,94.8658,VALID,0,VALID,19.3503,VALID,9,VALID,0.571875,
2009-09-16, 02:26:04,VALID,916.707,VALID,0,VALID,95.0259,VALID,0,VALID,19.3308,VALID,9,VALID,0.335938,
2009-09-16, 02:27:04,VALID,916.711,VALID,0,VALID,95.1631,VALID,0,VALID,19.3099,VALID,9,VALID,0.301172,
2009-09-16, 02:28:04,VALID,916.71,VALID,0,VALID,95.3079,VALID,0,VALID,19.3308,VALID,9,VALID,0.312891,
2009-09-16, 02:29:04,VALID,916.669,VALID,0,VALID,95.3232,VALID,0,VALID,19.3294,VALID,9,VALID,0.145313,
2009-09-16, 02:30:04,VALID,916.671,VALID,0,VALID,95.3689,VALID,0,VALID,19.3308,VALID,9,VALID,0.779297,
2009-09-16, 02:31:04,VALID,916.672,VALID,0,VALID,95.4909,VALID,0,VALID,19.3099,VALID,9,VALID,0.498437,
2009-09-16, 02:32:04,VALID,916.707,VALID,0,VALID,95.4757,VALID,0,VALID,19.3099,VALID,9,VALID,0.120703,
2009-09-16, 02:33:04,VALID,916.709,VALID,0,VALID,95.4985,VALID,0,VALID,19.3503,VALID,9,VALID,0.114453,
2009-09-16, 02:34:04,VALID,916.68,VALID,0,VALID,95.529,VALID,0,VALID,19.3503,VALID,9,VALID,0.402734,
2009-09-16, 02:35:04,VALID,916.698,VALID,0,VALID,95.6357,VALID,0,VALID,19.3698,VALID,9,VALID,0.0636719,
2009-09-16, 02:36:04,VALID,916.666,VALID,0,VALID,95.6357,VALID,0.107441,VALID,19.3698,VALID,9,VALID,0,
2009-09-16, 02:37:04,VALID,916.681,VALID,0,VALID,95.5748,VALID,0,VALID,19.3893,VALID,9,VALID,0,
2009-09-16, 02:38:04,VALID,916.707,VALID,0,VALID,95.7272,VALID,0.107441,VALID,19.3879,VALID,9,VALID,0.0929687,
2009-09-16, 02:39:04,VALID,916.678,VALID,0,VALID,95.5595,VALID,0.107441,VALID,19.3893,VALID,9,VALID,0.302734,
2009-09-16, 02:40:04,VALID,916.693,VALID,0,VALID,95.59,VALID,0,VALID,19.3294,VALID,9,VALID,0.372656,
2009-09-16, 02:41:04,VALID,916.72,VALID,0,VALID,95.6434,VALID,0,VALID,19.3698,VALID,9,VALID,0.28125,
2009-09-16, 02:42:04,VALID,916.681,VALID,0,VALID,95.529,VALID,0,VALID,19.3308,VALID,9,VALID,0.160156,
2009-09-16, 02:43:04,VALID,916.696,VALID,0,VALID,95.59,VALID,0.107441,VALID,19.3503,VALID,9,VALID,1.0293,
2009-09-16, 02:44:04,VALID,916.664,VALID,0,VALID,95.7958,VALID,0.107441,VALID,19.3294,VALID,9,VALID,0.877344,
2009-09-16, 02:45:04,VALID,916.692,VALID,0,VALID,95.8873,VALID,0,VALID,19.3503,VALID,9,VALID,0.703906,
2009-09-16, 02:46:04,VALID,916.682,VALID,0,VALID,96.0093,VALID,0.107441,VALID,19.3698,VALID,9,VALID,0.427734,
2009-09-16, 02:47:04,VALID,916.665,VALID,0,VALID,96.0855,VALID,0.107441,VALID,19.3893,VALID,9,VALID,0.483203,
2009-09-16, 02:48:04,VALID,916.66,VALID,0,VALID,96.0245,VALID,0.107441,VALID,19.3684,VALID,45,VALID,0.889453,
2009-09-16, 02:49:04,VALID,916.619,VALID,0,VALID,96.0093,VALID,0,VALID,19.3698,VALID,77,VALID,0.16875,
2009-09-16, 02:50:04,VALID,916.604,VALID,0,VALID,95.9254,VALID,0.107441,VALID,19.3489,VALID,77,VALID,0.137891,
2009-09-16, 02:51:04,VALID,916.582,VALID,0,VALID,96.1465,VALID,0.107441,VALID,19.3893,VALID,77,VALID,0.560156,
2009-09-16, 02:52:04,VALID,916.596,VALID,0,VALID,96.2075,VALID,0,VALID,19.3879,VALID,77,VALID,0.339063,
2009-09-16, 02:53:04,VALID,916.573,VALID,0,VALID,96.0398,VALID,0.107441,VALID,19.3893,VALID,77,VALID,0.576172,
2009-09-16, 02:54:04,VALID,916.598,VALID,0,VALID,96.0322,VALID,0,VALID,19.3698,VALID,77,VALID,0.577344,
2009-09-16, 02:55:04,VALID,916.586,VALID,0,VALID,96.0703,VALID,0,VALID,19.3684,VALID,77,VALID,0.231641,
2009-09-16, 02:56:04,VALID,916.578,VALID,0,VALID,96.1389,VALID,0.107441,VALID,19.3684,VALID,77,VALID,0.223047,
2009-09-16, 02:57:04,VALID,916.535,VALID,0,VALID,96.177,VALID,0.107441,VALID,19.3879,VALID,77,VALID,0.331641,
2009-09-16, 02:58:04,VALID,916.565,VALID,0,VALID,96.2151,VALID,0.107441,VALID,19.4074,VALID,77,VALID,0.390234,
2009-09-16, 02:59:04,VALID,916.525,VALID,0,VALID,96.2304,VALID,0.107441,VALID,19.4074,VALID,77,VALID,0.0304688,
2009-09-16, 03:00:04,VALID,916.526,VALID,0,VALID,96.055,VALID,0.107441,VALID,19.3879,VALID,77,VALID,0.739453,
2009-09-16, 03:01:04,VALID,916.467,VALID,0,VALID,96.0322,VALID,0,VALID,19.3503,VALID,57,VALID,1.64102,
2009-09-16, 03:02:04,VALID,916.498,VALID,0,VALID,96.238,VALID,0.107441,VALID,19.3698,VALID,13,VALID,0.794922,
2009-09-16, 03:03:04,VALID,916.506,VALID,0,VALID,96.299,VALID,0,VALID,19.3489,VALID,315,VALID,0.739453,
2009-09-16, 03:04:04,VALID,916.503,VALID,0,VALID,96.2761,VALID,0.107441,VALID,19.3294,VALID,315,VALID,0.485547,
2009-09-16, 03:05:04,VALID,916.493,VALID,0,VALID,96.3981,VALID,0,VALID,19.3294,VALID,315,VALID,0.883594,
2009-09-16, 03:06:04,VALID,916.499,VALID,0,VALID,96.4591,VALID,0,VALID,19.3294,VALID,315,VALID,0.758203,
2009-09-16, 03:07:04,VALID,916.463,VALID,0,VALID,96.4743,VALID,0.107441,VALID,19.3294,VALID,315,VALID,0.164063,
2009-09-16, 03:08:04,VALID,916.433,VALID,0,VALID,96.4515,VALID,0,VALID,19.3503,VALID,315,VALID,0.695313,
2009-09-16, 03:09:04,VALID,916.412,VALID,0,VALID,96.4743,VALID,0,VALID,19.3099,VALID,315,VALID,1.39258,
2009-09-16, 03:10:04,VALID,916.422,VALID,0,VALID,96.6268,VALID,0,VALID,19.3503,VALID,39,VALID,1.11797,
2009-09-16, 03:11:04,VALID,916.414,VALID,0,VALID,96.5811,VALID,0.107441,VALID,19.3294,VALID,28,VALID,1.76367,
2009-09-16, 03:12:04,VALID,916.401,VALID,0,VALID,96.6497,VALID,0,VALID,19.3503,VALID,36,VALID,1.29609,
2009-09-16, 03:13:04,VALID,916.408,VALID,0,VALID,96.6878,VALID,0.107441,VALID,19.3308,VALID,39,VALID,1.31523,
2009-09-16, 03:14:04,VALID,916.427,VALID,0,VALID,96.642,VALID,0.107441,VALID,19.3113,VALID,34,VALID,1.59805,
2009-09-16, 03:15:04,VALID,916.459,VALID,0,VALID,96.7411,VALID,0,VALID,19.3308,VALID,27,VALID,1.55469,
2009-09-16, 03:16:04,VALID,916.457,VALID,0,VALID,96.7716,VALID,0.107441,VALID,19.3294,VALID,21,VALID,0.937891,
2009-09-16, 03:17:04,VALID,916.423,VALID,0,VALID,96.6878,VALID,0,VALID,19.3113,VALID,35,VALID,1.66758,
2009-09-16, 03:18:04,VALID,916.465,VALID,0,VALID,96.7183,VALID,0,VALID,19.3113,VALID,17,VALID,2.03437,
2009-09-16, 03:19:04,VALID,916.458,VALID,0,VALID,96.8326,VALID,0,VALID,19.3308,VALID,13,VALID,1.41289,
2009-09-16, 03:20:04,VALID,916.526,VALID,0,VALID,96.8326,VALID,0,VALID,19.3099,VALID,60,VALID,0.500781,
2009-09-16, 03:21:04,VALID,916.508,VALID,0,VALID,96.8479,VALID,0.107441,VALID,19.3489,VALID,74,VALID,0.878516,
2009-09-16, 03:22:04,VALID,916.489,VALID,0,VALID,96.7107,VALID,0.107441,VALID,19.3099,VALID,342,VALID,1.38672,
2009-09-16, 03:23:04,VALID,916.487,VALID,0,VALID,96.7335,VALID,0,VALID,19.3113,VALID,342,VALID,0.588281,
2009-09-16, 03:24:04,VALID,916.428,VALID,0,VALID,96.7716,VALID,0.107441,VALID,19.3294,VALID,34,VALID,1.44297,
2009-09-16, 03:25:04,VALID,916.441,VALID,0,VALID,96.7564,VALID,0.107441,VALID,19.3099,VALID,324,VALID,1.86836,
2009-09-16, 03:26:04,VALID,916.468,VALID,0,VALID,96.6573,VALID,0.107441,VALID,19.3113,VALID,215,VALID,2.17852,
2009-09-16, 03:27:04,VALID,916.436,VALID,0,VALID,96.6268,VALID,0,VALID,19.2709,VALID,292,VALID,1.63359,
2009-09-16, 03:28:04,VALID,916.409,VALID,0,VALID,96.6268,VALID,0.107441,VALID,19.3113,VALID,269,VALID,0.70625,
2009-09-16, 03:29:04,VALID,916.428,VALID,0,VALID,96.6192,VALID,0.107441,VALID,19.3308,VALID,321,VALID,1.28398,
2009-09-16, 03:30:04,VALID,916.394,VALID,0,VALID,96.6802,VALID,0,VALID,19.3294,VALID,349,VALID,0.471094,
2009-09-16, 03:31:04,VALID,916.453,VALID,0,VALID,96.6573,VALID,0,VALID,19.3099,VALID,353,VALID,1.39531,
2009-09-16, 03:32:04,VALID,916.436,VALID,0,VALID,96.7411,VALID,0,VALID,19.3489,VALID,66,VALID,1.39766,
2009-09-16, 03:33:04,VALID,916.383,VALID,0,VALID,96.6115,VALID,0,VALID,19.3294,VALID,24,VALID,2.70937,
2009-09-16, 03:34:04,VALID,916.426,VALID,0,VALID,96.5963,VALID,0,VALID,19.3503,VALID,216,VALID,0.767969,
2009-09-16, 03:35:04,VALID,916.421,VALID,0,VALID,96.5887,VALID,0.107441,VALID,19.3308,VALID,176,VALID,0.415625,
2009-09-16, 03:36:04,VALID,916.406,VALID,0,VALID,96.5658,VALID,0.107441,VALID,19.3294,VALID,176,VALID,0.592969,
2009-09-16, 03:37:04,VALID,916.397,VALID,0,VALID,96.5582,VALID,0,VALID,19.3308,VALID,176,VALID,0.745313,
2009-09-16, 03:38:04,VALID,916.397,VALID,0,VALID,96.4972,VALID,0,VALID,19.3099,VALID,176,VALID,0.918359,
2009-09-16, 03:39:04,VALID,916.348,VALID,0,VALID,96.5429,VALID,0.107441,VALID,19.3308,VALID,210,VALID,0.218359,
2009-09-16, 03:40:04,VALID,916.374,VALID,0,VALID,96.642,VALID,0,VALID,19.3099,VALID,210,VALID,0.166406,
2009-09-16, 03:41:04,VALID,916.366,VALID,0,VALID,96.642,VALID,0,VALID,19.3698,VALID,210,VALID,0.646484,
2009-09-16, 03:42:04,VALID,916.391,VALID,0,VALID,96.6115,VALID,0.107441,VALID,19.3698,VALID,210,VALID,0.727344,
2009-09-16, 03:43:04,VALID,916.38,VALID,0,VALID,96.6649,VALID,0.107441,VALID,19.3489,VALID,355,VALID,0.830859,
2009-09-16, 03:44:04,VALID,916.377,VALID,0,VALID,96.6725,VALID,0,VALID,19.3489,VALID,253,VALID,0.821484,